Hourly Weather Hellin

Today, 8 August, Saturday

Time Temperature Precipitation Wind Pressure Humidity
00:00 +26°C° 0.2 mm 1 mps 713 mmHg 48%
01:00 +25°C° 0 mm 1 mps 713 mmHg 50%
02:00 +25°C° 0 mm 1 mps 712 mmHg 51%
03:00 +24°C° 0 mm 1 mps 712 mmHg 53%
04:00 +22°C° 0 mm 0 mps 712 mmHg 52%
05:00 +22°C° 0 mm 0 mps 712 mmHg 51%
06:00 +23°C° 0 mm 0 mps 712 mmHg 50%
07:00 +25°C° 0 mm 0 mps 713 mmHg 43%
08:00 +29°C° 0 mm 1 mps 713 mmHg 36%
09:00 +31°C° 0 mm 1 mps 714 mmHg 30%
10:00 +34°C° 0 mm 2 mps 714 mmHg 26%
11:00 +36°C° 0 mm 3 mps 714 mmHg 23%
12:00 +37°C° 0 mm 3 mps 714 mmHg 19%
13:00 +38°C° 0 mm 4 mps 714 mmHg 18%
14:00 +39°C° 0 mm 5 mps 713 mmHg 17%
15:00 +40°C° 0 mm 6 mps 713 mmHg 16%
16:00 +39°C° 0 mm 5 mps 713 mmHg 19%
17:00 +36°C° 0 mm 4 mps 713 mmHg 22%
18:00 +35°C° 0 mm 4 mps 713 mmHg 25%
19:00 +33°C° 0 mm 3 mps 713 mmHg 27%
20:00 +31°C° 0 mm 2 mps 713 mmHg 29%
21:00 +30°C° 0 mm 2 mps 713 mmHg 32%
22:00 +29°C° 0 mm 2 mps 713 mmHg 34%
23:00 +28°C° 0 mm 1 mps 712 mmHg 37%

Tomorrow, 9 August, Sunday

Time Temperature Precipitation Wind Pressure Humidity
00:00 +27°C° 0 mm 1 mps 712 mmHg 40%
01:00 +26°C° 0 mm 1 mps 711 mmHg 41%
02:00 +26°C° 0 mm 1 mps 711 mmHg 42%
03:00 +25°C° 0 mm 1 mps 711 mmHg 43%
04:00 +25°C° 0 mm 1 mps 711 mmHg 44%
05:00 +25°C° 0 mm 1 mps 711 mmHg 44%
06:00 +26°C° 0 mm 1 mps 711 mmHg 45%
07:00 +28°C° 0 mm 1 mps 711 mmHg 38%
08:00 +30°C° 0 mm 2 mps 712 mmHg 31%
09:00 +32°C° 0 mm 2 mps 712 mmHg 24%
10:00 +35°C° 0 mm 3 mps 712 mmHg 21%
11:00 +36°C° 0 mm 3 mps 712 mmHg 18%
12:00 +38°C° 0 mm 4 mps 712 mmHg 16%
13:00 +40°C° 0 mm 5 mps 711 mmHg 15%
14:00 +40°C° 0 mm 5 mps 711 mmHg 15%
15:00 +41°C° 0 mm 6 mps 710 mmHg 15%
16:00 +39°C° 0 mm 6 mps 710 mmHg 18%
17:00 +38°C° 0 mm 6 mps 710 mmHg 20%
18:00 +36°C° 0 mm 7 mps 709 mmHg 23%
19:00 +34°C° 0 mm 5 mps 710 mmHg 27%
20:00 +32°C° 0 mm 4 mps 710 mmHg 30%
21:00 +30°C° 0 mm 2 mps 710 mmHg 34%
22:00 +29°C° 0.1 mm 2 mps 710 mmHg 37%
23:00 +28°C° 0.1 mm 1 mps 709 mmHg 40%

Day after tomorrow, 10 August, Monday

Time Temperature Precipitation Wind Pressure Humidity
00:00 +27°C° 0.1 mm 1 mps 709 mmHg 42%
01:00 +27°C° 0 mm 1 mps 709 mmHg 44%
02:00 +26°C° 0 mm 1 mps 708 mmHg 47%
03:00 +23°C° 0 mm 0 mps 708 mmHg 49%
04:00 +23°C° 0 mm 0 mps 708 mmHg 49%
05:00 +23°C° 0 mm 0 mps 708 mmHg 49%
06:00 +23°C° 0 mm 0 mps 708 mmHg 49%
07:00 +27°C° 0 mm 1 mps 708 mmHg 42%
08:00 +29°C° 0 mm 1 mps 709 mmHg 35%
09:00 +31°C° 0 mm 2 mps 709 mmHg 28%
10:00 +34°C° 0 mm 3 mps 709 mmHg 25%
11:00 +36°C° 0 mm 4 mps 709 mmHg 22%
12:00 +37°C° 0 mm 5 mps 709 mmHg 19%
13:00 +37°C° 0 mm 5 mps 709 mmHg 19%
14:00 +37°C° 0 mm 4 mps 708 mmHg 19%
15:00 +37°C° 0 mm 3 mps 708 mmHg 20%
16:00 +37°C° 0 mm 4 mps 708 mmHg 21%
17:00 +36°C° 0 mm 4 mps 708 mmHg 22%
18:00 +35°C° 0 mm 4 mps 708 mmHg 23%
19:00 +35°C° 0 mm 4 mps 709 mmHg 25%
20:00 +34°C° 0 mm 4 mps 709 mmHg 27%
21:00 +33°C° 0 mm 4 mps 709 mmHg 28%
22:00 +30°C° 0 mm 3 mps 709 mmHg 34%
23:00 +29°C° 0 mm 3 mps 709 mmHg 39%

11 August, Tuesday

Time Temperature Precipitation Wind Pressure Humidity
00:00 +27°C° 0 mm 2 mps 709 mmHg 45%
01:00 +27°C° 0 mm 2 mps 708 mmHg 48%
02:00 +26°C° 0 mm 2 mps 708 mmHg 50%
03:00 +25°C° 0 mm 1 mps 708 mmHg 53%
04:00 +25°C° 0 mm 1 mps 708 mmHg 53%
05:00 +25°C° 0 mm 1 mps 708 mmHg 53%
06:00 +25°C° 0 mm 1 mps 708 mmHg 53%
07:00 +27°C° 0 mm 1 mps 709 mmHg 46%
08:00 +29°C° 0 mm 2 mps 709 mmHg 39%
09:00 +31°C° 0 mm 2 mps 709 mmHg 31%
10:00 +34°C° 0 mm 3 mps 710 mmHg 28%
11:00 +35°C° 0 mm 5 mps 710 mmHg 24%
12:00 +38°C° 0 mm 6 mps 710 mmHg 20%
13:00 +38°C° 0 mm 7 mps 709 mmHg 21%
14:00 +39°C° 0 mm 7 mps 709 mmHg 21%
15:00 +39°C° 0 mm 8 mps 709 mmHg 21%
16:00 +36°C° 0 mm 7 mps 709 mmHg 25%
17:00 +35°C° 0 mm 7 mps 709 mmHg 30%
18:00 +33°C° 0 mm 6 mps 708 mmHg 35%
19:00 +32°C° 0 mm 5 mps 708 mmHg 41%
20:00 +29°C° 0 mm 4 mps 708 mmHg 46%
21:00 +27°C° 0 mm 3 mps 708 mmHg 52%
22:00 +27°C° 0 mm 2 mps 708 mmHg 57%
23:00 +26°C° 0 mm 2 mps 708 mmHg 62%

12 August, Wednesday

Time Temperature Precipitation Wind Pressure Humidity
00:00 +25°C° 0 mm 1 mps 708 mmHg 67%
01:00 +24°C° 0 mm 1 mps 708 mmHg 69%
02:00 +24°C° 0 mm 1 mps 707 mmHg 70%
03:00 +21°C° 0 mm 0 mps 707 mmHg 72%
04:00 +24°C° 0 mm 1 mps 707 mmHg 71%
05:00 +24°C° 0 mm 1 mps 708 mmHg 69%
06:00 +24°C° 0 mm 1 mps 708 mmHg 68%
07:00 +26°C° 0 mm 1 mps 708 mmHg 59%
08:00 +27°C° 0 mm 1 mps 709 mmHg 49%
09:00 +29°C° 0 mm 1 mps 709 mmHg 40%
10:00 +30°C° 0 mm 1 mps 709 mmHg 36%
11:00 +32°C° 0 mm 1 mps 709 mmHg 32%
12:00 +34°C° 0 mm 2 mps 709 mmHg 29%
13:00 +35°C° 0 mm 2 mps 709 mmHg 26%
14:00 +36°C° 0 mm 2 mps 709 mmHg 23%
15:00 +37°C° 0 mm 2 mps 709 mmHg 20%
16:00 +36°C° 0 mm 3 mps 709 mmHg 24%
17:00 +35°C° 0 mm 4 mps 708 mmHg 27%
18:00 +34°C° 0 mm 5 mps 708 mmHg 31%
19:00 +33°C° 0 mm 4 mps 709 mmHg 34%
20:00 +30°C° 0 mm 3 mps 709 mmHg 37%
21:00 +28°C° 0 mm 1 mps 709 mmHg 40%
22:00 +28°C° 0 mm 1 mps 709 mmHg 41%
23:00 +27°C° 0 mm 1 mps 709 mmHg 42%

13 August, Thursday

Time Temperature Precipitation Wind Pressure Humidity
00:00 +26°C° 0 mm 1 mps 709 mmHg 43%
01:00 +26°C° 0 mm 1 mps 709 mmHg 39%
02:00 +25°C° 0 mm 2 mps 708 mmHg 36%
03:00 +25°C° 0 mm 2 mps 708 mmHg 33%
04:00 +25°C° 0 mm 2 mps 708 mmHg 33%
05:00 +24°C° 0 mm 2 mps 709 mmHg 33%
06:00 +24°C° 0 mm 2 mps 709 mmHg 33%
07:00 +26°C° 0 mm 2 mps 709 mmHg 29%
08:00 +29°C° 0 mm 2 mps 710 mmHg 25%
09:00 +31°C° 0 mm 1 mps 710 mmHg 21%
10:00 +32°C° 0 mm 2 mps 710 mmHg 19%
11:00 +34°C° 0 mm 2 mps 711 mmHg 18%
12:00 +35°C° 0 mm 2 mps 711 mmHg 16%
13:00 +36°C° 0 mm 3 mps 710 mmHg 16%
14:00 +37°C° 0 mm 3 mps 710 mmHg 15%
15:00 +38°C° 0 mm 4 mps 710 mmHg 14%
16:00 +36°C° 0 mm 5 mps 710 mmHg 25%
17:00 +34°C° 0 mm 6 mps 709 mmHg 36%
18:00 +32°C° 0 mm 8 mps 709 mmHg 47%
19:00 +30°C° 0 mm 6 mps 709 mmHg 56%
20:00 +28°C° 0 mm 5 mps 710 mmHg 65%
21:00 +26°C° 0 mm 3 mps 710 mmHg 74%
22:00 +26°C° 0 mm 2 mps 710 mmHg 77%
23:00 +25°C° 0 mm 2 mps 710 mmHg 81%
Show more